"America/Chicago Time","Lifetime Energy (kWh)","Power (W)","AC Volts RMS (V) ","AC Amps RMS (mA)","Grid Frequency (Hz)","Inverter Temperature (C)"
"05/09/12 09:22:13","80.3322","135.4","217.96","625","60.03","21"
"05/09/12 09:27:12","80.3428","139.8","218.41","644","60.03","21"
"05/09/12 09:32:12","80.3539","142.6","217.62","658","60.0","21"
"05/09/12 09:37:12","80.365","145.3","217.81","672","60.03","22"
"05/09/12 09:42:12","80.3766","149.2","218.32","685","60.03","21"
"05/09/12 09:47:12","80.3883","151.9","217.71","701","60.03","22"
"05/09/12 09:52:11","80.4002","154.5","218.25","705","60.0","22"
"05/09/12 09:57:12","80.4124","158.9","218.3","730","60.07","22"
"05/09/12 10:02:11","80.425","162.7","218.46","743","60.07","23"
"05/09/12 10:07:12","80.4377","165.0","219.04","746","60.0","23"
"05/09/12 10:12:11","80.4505","169.8","218.21","766","60.03","22"
"05/09/12 10:17:12","80.4638","171.4","218.82","778","60.03","23"
"05/09/12 10:22:12","80.4772","171.3","218.78","779","60.03","23"
"05/09/12 10:27:12","80.4907","173.4","218.77","783","60.03","24"
"05/09/12 10:32:11","80.5042","175.1","218.33","794","60.0","24"
"05/09/12 10:37:11","80.5179","177.4","218.93","802","60.03","24"
"05/09/12 10:42:12","80.5319","179.1","218.77","804","60.0","24"
"05/09/12 10:47:12","80.5459","181.1","218.75","819","60.03","24"
"05/09/12 10:52:12","80.5601","182.0","219.01","823","60.03","24"
"05/09/12 10:57:12","80.5743","182.9","218.81","824","60.07","25"
"05/09/12 11:02:12","80.5886","185.2","218.97","837","60.0","25"
"05/09/12 11:07:13","80.6033","189.1","218.64","851","60.03","24"
"05/09/12 11:12:11","80.618","188.9","218.85","849","60.03","24"
"05/09/12 11:17:12","80.6326","189.8","219.42","849","60.03","25"
"05/09/12 11:22:12","80.6476","191.9","218.46","865","60.03","24"
"05/09/12 11:27:11","80.6624","192.6","218.9","865","60.03","24"
"05/09/12 11:32:12","80.6776","192.6","218.7","865","60.0","25"
"05/09/12 11:37:12","80.6925","193.1","218.29","867","60.0","26"
"05/09/12 11:42:11","80.7076","193.4","217.95","876","60.03","26"
"05/09/12 11:47:13","80.7227","195.8","218.31","878","60.0","27"
"05/09/12 11:52:12","80.738","194.8","218.56","881","60.0","27"
"05/09/12 11:57:11","80.753","195.5","218.48","880","60.03","28"
"05/09/12 12:02:11","80.7683","196.0","218.47","875","60.0","27"
"05/09/12 12:07:12","80.7836","195.4","218.39","883","60.03","28"
"05/09/12 12:12:11","80.7989","195.8","218.62","883","60.0","28"
"05/09/12 12:17:12","80.8141","195.2","218.9","881","60.03","27"
"05/09/12 12:22:12","80.8294","195.8","218.74","880","60.03","27"
"05/09/12 12:27:11","80.8446","195.4","218.77","879","60.03","27"
"05/09/12 12:32:11","80.8599","196.0","218.28","884","60.0","27"
"05/09/12 12:37:13","80.8751","195.8","218.83","878","60.03","27"
"05/09/12 12:42:11","80.8904","196.1","217.62","889","60.0","27"
"05/09/12 12:47:11","80.9056","196.0","217.68","886","60.03","27"
"05/09/12 12:52:12","80.9209","196.2","217.67","886","60.03","27"
"05/09/12 12:57:12","80.9362","196.4","219.25","874","60.03","26"
"05/09/12 13:02:13","80.9516","196.1","219.24","875","60.03","26"
"05/09/12 13:07:11","80.9667","194.3","218.58","873","60.03","27"
"05/09/12 13:12:12","80.9819","193.6","218.99","873","60.03","27"
"05/09/12 13:17:12","80.9969","193.3","217.74","868","60.0","28"
"05/09/12 13:22:13","81.0119","192.5","217.72","871","60.03","28"
"05/09/12 13:27:12","81.0269","192.4","217.92","871","60.03","27"
"05/09/12 13:32:11","81.0418","191.3","217.29","866","60.0","27"
"05/09/12 13:37:12","81.0567","190.4","217.81","859","60.03","27"
"05/09/12 13:42:12","81.0715","188.2","217.74","850","60.03","27"
"05/09/12 13:47:12","81.0862","190.4","217.4","860","60.0","27"
"05/09/12 13:52:13","81.101","186.2","217.2","848","60.03","27"
"05/09/12 13:57:12","81.1154","184.6","218.01","841","60.03","27"
"05/09/12 14:02:11","81.1298","184.1","217.73","835","60.03","27"
"05/09/12 14:07:11","81.144","181.8","216.86","828","60.0","27"
"05/09/12 14:12:12","81.1581","181.1","217.06","823","60.0","26"
"05/09/12 14:17:11","81.1721","178.4","217.82","809","60.03","26"
"05/09/12 14:22:13","81.1861","177.2","218.1","806","60.03","26"
"05/09/12 14:27:11","81.1997","174.7","218.12","797","60.03","25"
"05/09/12 14:32:11","81.2133","172.1","218.24","782","60.0","26"
"05/09/12 14:37:12","81.2265","170.0","218.01","773","60.07","26"
"05/09/12 14:42:12","81.2397","167.3","218.06","761","60.03","26"
"05/09/12 14:47:11","81.2526","166.5","217.76","758","60.03","26"
"05/09/12 14:52:13","81.2656","165.8","217.22","758","60.03","25"
"05/09/12 14:57:12","81.2783","162.1","217.31","740","60.03","25"
"05/09/12 15:02:12","81.2908","158.5","217.14","728","60.07","25"
"05/09/12 15:07:12","81.3032","157.1","217.16","720","60.03","25"
"05/09/12 15:12:12","81.3152","152.1","217.99","697","60.03","26"
"05/09/12 15:17:12","81.327","149.8","218.13","684","60.03","26"
"05/09/12 15:22:13","81.3386","147.2","217.86","676","60.03","26"
"05/09/12 15:27:11","81.3498","144.1","218.33","666","60.0","25"
"05/09/12 15:32:13","81.3611","142.0","217.2","652","60.03","25"
"05/09/12 15:37:12","81.3719","138.8","217.74","644","60.03","25"
"05/09/12 15:42:11","81.3826","135.1","218.29","622","60.0","26"
"05/09/12 15:47:12","81.393","132.4","217.36","615","60.03","25"
"05/09/12 15:52:12","81.4032","129.0","217.83","598","60.03","25"
"05/09/12 15:57:12","81.4132","126.3","217.93","586","60.03","25"
"05/09/12 16:02:12","81.4229","123.5","217.94","574","60.03","25"
"05/09/12 16:07:12","81.4323","119.6","217.91","556","60.03","24"
"05/09/12 16:12:12","81.4415","115.4","217.8","543","60.03","24"
"05/09/12 16:17:12","81.4503","111.5","217.82","524","60.0","24"
"05/09/12 16:22:13","81.4589","108.1","216.81","510","60.03","24"
"05/09/12 16:27:12","81.4671","103.8","216.21","495","60.0","24"
"05/09/12 16:32:12","81.4751","101.1","216.68","482","60.0","23"
"05/09/12 16:37:11","81.4828","97.0","216.15","465","60.03","23"
"05/09/12 16:42:12","81.4902","92.8","216.18","450","60.03","23"
"05/09/12 16:47:12","81.4973","88.6","215.93","427","60.03","22"
"05/09/12 16:52:12","81.504","84.1","215.72","414","60.03","22"
"05/09/12 16:57:12","81.5104","79.3","215.99","391","60.03","22"
"05/09/12 17:02:12","81.5164","75.0","216.25","371","60.0","22"
"05/09/12 17:07:12","81.522","70.5","215.69","355","60.0","22"
"05/09/12 17:12:15","81.5274","66.1","215.51","333","60.03","22"
"05/09/12 17:17:16","81.5323","61.7","215.46","315","60.03","21"
"05/09/12 17:22:15","81.5364","64.9","215.84","293","60.0","21"
"05/09/12 17:27:16","81.5403","42.2","215.09","172","60.03","21"
"05/09/12 17:32:17","81.5442","49.3","215.05","334","60.03","21"
"05/09/12 17:37:16","81.5477","37.1","214.75","99","60.03","20"
"05/09/12 17:42:15","81.5509","34.5","214.72","88","60.03","20"
"05/09/12 17:47:16","81.5538","30.3","214.91","74","60.03","19"
"05/09/12 17:52:16","81.5561","32.5","214.41","66","60.07","19"
"05/09/12 17:57:17","81.5583","34.0","214.74","115","60.03","19"
"05/09/12 18:02:15","81.5602","14.3","214.22","15","60.03","18"
"05/09/12 18:07:17","81.5619","17.7","213.9","19","60.0","18"
"05/09/12 18:12:16","81.5632","22.0","214.29","96","60.03","18"
"05/09/12 18:17:16","81.5644","12.3","213.76","0","60.03","17"
"05/09/12 18:22:15","81.5653","16.3","213.51","1","60.03","17"
"05/09/12 18:27:16","81.566","0.0","213.76","22","60.03","17"
"05/09/12 18:32:15","81.5666","0.0","213.88","0","60.0","17"
"05/09/12 18:37:16","81.567","7.7","213.95","0","60.03","17"
"05/09/12 18:42:17","81.5674","0.0","213.87","0","60.07","17"
"05/09/12 18:47:15","81.5677","11.6","213.72","75","60.03","17"
"05/09/12 18:52:16","81.568","0.0","213.22","0","60.03","17"
"05/09/12 18:57:17","81.5682","12.3","213.38","39","60.0","17"
"05/09/12 19:02:15","81.5685","12.3","213.78","16","60.03","17"
"05/09/12 19:12:16","81.5689","0.0","213.71","0","60.0","16"
"05/09/12 19:17:16","81.569","0.0","212.58","0","60.03","15"
"05/09/12 19:22:19","81.569","0.0","213.25","0","60.03","15"
"05/09/12 19:27:19","81.569","0.0","213.48","0","60.0","15"
"05/10/12 06:12:20","81.569","0.0","212.77","0","60.03","10"
"05/10/12 06:22:16","81.5691","0.0","213.21","0","60.03","11"
"05/10/12 06:27:19","81.5693","0.0","213.63","0","60.03","11"
"05/10/12 06:32:19","81.5696","0.0","213.84","0","60.03","12"
"05/10/12 06:37:16","81.5699","14.1","213.88","3","60.03","12"
"05/10/12 06:42:16","81.5703","14.2","213.83","36","60.03","13"
"05/10/12 06:47:16","81.5708","14.9","213.62","87","60.03","13"
"05/10/12 06:52:16","81.5715","14.0","213.44","3","60.03","13"
"05/10/12 06:57:16","81.5725","19.3","214.17","220","60.07","13"
"05/10/12 07:02:17","81.5736","17.1","214.98","7","60.0","14"
"05/10/12 07:07:17","81.5751","27.1","213.83","68","60.03","15"
"05/10/12 07:12:17","81.5768","22.4","215.93","30","60.0","15"
"05/10/12 07:17:16","81.5787","22.3","214.91","232","60.03","15"
"05/10/12 07:22:17","81.581","36.3","214.6","167","60.03","15"
"05/10/12 07:27:16","81.5836","34.1","215.25","157","60.03","16"
"05/10/12 07:32:17","81.5866","34.9","214.47","110","60.03","17"
"05/10/12 07:37:16","81.5899","39.0","214.37","136","60.03","17"
"05/10/12 07:42:16","81.5935","49.1","214.26","231","60.03","17"
"05/10/12 07:47:17","81.5974","50.3","214.59","321","60.0","18"
"05/10/12 07:52:16","81.6013","55.3","215.5","132","60.03","18"
"05/10/12 07:57:17","81.6051","53.5","215.76","148","60.0","18"
"05/10/12 08:02:17","81.6098","68.3","216.47","344","60.0","18"
"05/10/12 08:07:16","81.6152","72.9","215.37","363","60.03","19"
"05/10/12 08:12:17","81.6211","77.5","216.73","381","60.0","19"
"05/10/12 08:17:17","81.6272","82.0","215.11","401","60.0","20"
"05/10/12 08:22:17","81.6338","86.3","214.96","423","60.0","20"
"05/10/12 08:27:18","81.6407","90.6","214.45","444","60.03","20"
"05/10/12 08:32:17","81.648","95.0","214.68","456","60.03","20"
"05/10/12 08:37:16","81.6554","99.6","215.67","477","60.0","21"
"05/10/12 08:42:17","81.6633","103.9","215.43","498","60.0","22"
"05/10/12 08:47:17","81.6716","107.6","214.73","515","60.03","22"
"05/10/12 08:52:17","81.6801","111.5","214.18","535","60.03","22"
"05/10/12 08:57:17","81.689","116.3","215.77","549","60.03","22"
"05/10/12 09:02:17","81.6982","119.9","215.73","566","60.0","23"
"05/10/12 09:07:17","81.7077","123.5","215.55","580","60.03","23"
"05/10/12 09:12:17","81.7174","126.9","215.68","595","60.03","24"
"05/10/12 09:17:17","81.7274","130.7","217.2","606","60.0","24"
"05/10/12 09:22:17","81.7378","134.6","217.23","623","60.03","24"
"05/10/12 09:27:17","81.7484","137.5","217.42","636","60.0","24"
"05/10/12 09:32:16","81.7592","140.6","217.3","653","60.0","25"
"05/10/12 09:37:17","81.7704","144.5","216.78","666","60.03","25"
"05/10/12 09:42:16","81.7816","146.6","217.38","675","60.0","25"
"05/10/12 09:47:16","81.7932","150.3","217.48","687","60.03","25"
"05/10/12 09:52:17","81.8051","153.0","217.34","701","60.03","25"
"05/10/12 09:57:16","81.817","154.8","216.83","708","60.03","26"
"05/10/12 10:02:16","81.8292","157.5","217.0","724","60.03","27"
"05/10/12 10:07:16","81.8415","160.1","217.54","732","60.03","27"
"05/10/12 10:12:17","81.8541","163.0","217.13","748","60.0","27"
"05/10/12 10:17:17","81.8668","164.7","217.67","747","60.0","27"
"05/10/12 10:22:16","81.8797","166.9","218.11","757","60.03","28"
"05/10/12 10:27:16","81.8927","168.5","218.2","765","60.0","28"
"05/10/12 10:32:18","81.906","169.9","218.47","768","60.0","29"
"05/10/12 10:37:17","81.9193","171.3","217.09","785","60.03","29"
"05/10/12 10:42:16","81.9327","173.9","217.46","787","60.03","29"
"05/10/12 10:47:17","81.9463","176.0","218.1","793","60.0","29"
"05/10/12 10:52:16","81.96","177.4","218.3","804","60.07","29"
"05/10/12 10:57:16","81.9739","178.8","217.95","810","60.03","30"
"05/10/12 11:02:17","81.9879","180.0","218.41","818","60.0","30"
"05/10/12 11:07:17","82.0021","181.4","218.73","821","60.03","30"
"05/10/12 11:12:17","82.0162","182.2","219.25","820","60.03","31"
"05/10/12 11:17:16","82.0304","183.8","219.46","831","60.03","31"
"05/10/12 11:22:17","82.0448","185.3","218.64","834","60.0","31"
"05/10/12 11:27:17","82.0593","185.4","218.66","842","60.03","31"
"05/10/12 11:32:17","82.0593","186.4","217.9","846","60.03","31"
"05/10/12 11:37:17","82.0738","187.4","218.22","844","60.0","31"
"05/10/12 11:42:18","82.0885","188.5","218.51","848","60.0","31"
"05/10/12 11:47:17","82.1031","188.7","218.32","855","60.03","32"
"05/10/12 11:52:17","82.1178","189.5","218.8","855","60.03","32"
"05/10/12 11:57:18","82.1327","189.7","218.68","857","60.03","32"
"05/10/12 12:02:16","82.1474","190.5","218.63","854","60.03","32"
"05/10/12 12:07:18","82.1623","191.7","218.45","865","60.03","32"
"05/10/12 12:12:16","82.1772","192.5","218.35","867","60.0","31"
"05/10/12 12:17:17","82.1922","191.9","218.31","866","60.03","32"
"05/10/12 12:22:16","82.2072","191.6","218.57","862","60.0","32"
"05/10/12 12:27:17","82.2221","192.3","218.38","858","60.03","32"
"05/10/12 12:32:17","82.2371","192.3","218.48","871","60.0","32"
"05/10/12 12:37:18","82.252","191.4","218.94","862","60.03","32"
"05/10/12 12:42:17","82.2669","190.5","218.57","857","60.03","32"
"05/10/12 12:47:16","82.2817","191.8","218.21","864","60.03","32"
"05/10/12 12:52:16","82.2967","191.4","218.51","862","60.03","32"
"05/10/12 12:57:17","82.3115","190.7","218.45","865","60.03","32"
"05/10/12 13:02:17","82.3264","188.6","218.45","852","60.03","32"
"05/10/12 13:07:17","82.3411","188.3","218.05","848","60.0","32"
"05/10/12 13:12:17","82.3557","187.7","218.16","848","60.0","33"
"05/10/12 13:17:17","82.3704","187.2","218.43","848","60.03","32"
"05/10/12 13:22:17","82.3849","186.1","218.01","839","60.03","33"
"05/10/12 13:27:17","82.3995","186.9","218.15","842","60.03","32"
"05/10/12 13:32:18","82.414","184.8","218.21","836","60.0","32"
"05/10/12 13:37:17","82.4283","183.0","218.45","828","60.03","33"
"05/10/12 13:42:17","82.4425","182.3","218.09","825","60.0","33"
"05/10/12 13:47:16","82.4567","181.1","218.96","821","60.03","33"
"05/10/12 13:52:17","82.4708","179.4","219.25","809","60.03","33"
"05/10/12 13:57:17","82.4847","177.2","219.79","801","60.03","33"
"05/10/12 14:02:17","82.4985","176.0","219.15","794","60.0","34"
"05/10/12 14:07:16","82.512","174.3","219.21","789","60.0","34"
"05/10/12 14:12:18","82.5256","173.9","219.27","779","60.0","35"
"05/10/12 14:17:16","82.539","172.7","218.72","777","60.0","34"
"05/10/12 14:22:17","82.5525","171.0","219.01","773","60.03","33"
"05/10/12 14:27:16","82.5657","169.0","218.96","769","60.03","33"
"05/10/12 14:32:17","82.5789","167.0","218.66","757","60.0","33"
"05/10/12 14:37:16","82.5918","164.9","219.16","746","60.03","32"
"05/10/12 14:42:17","82.6046","162.3","218.77","736","60.0","32"
"05/10/12 14:47:16","82.6171","160.5","219.36","731","60.03","32"
"05/10/12 14:52:18","82.6296","157.4","219.09","716","60.03","33"
"05/10/12 14:57:16","82.6417","156.8","217.48","715","60.0","32"
"05/10/12 15:02:17","82.6538","154.9","218.11","705","60.03","32"
"05/10/12 15:07:17","82.6657","150.9","218.49","689","60.03","32"
"05/10/12 15:12:16","82.6774","148.8","218.27","684","60.0","32"
"05/10/12 15:17:17","82.6889","146.3","217.56","674","60.0","32"
"05/10/12 15:22:16","82.7001","144.3","218.04","664","60.0","32"
"05/10/12 15:27:17","82.7113","140.5","218.06","649","60.0","32"
"05/10/12 15:32:16","82.7221","138.5","217.91","642","60.03","31"
"05/10/12 15:37:17","82.7327","134.7","218.19","621","60.0","31"
"05/10/12 15:42:18","82.7432","131.7","217.83","614","60.03","31"
"05/10/12 15:47:16","82.7532","129.1","217.57","602","60.0","31"
"05/10/12 15:52:16","82.7632","126.0","217.1","588","60.0","30"
"05/10/12 15:57:18","82.7729","122.7","217.07","579","60.07","30"
"05/10/12 16:02:17","82.7824","119.9","217.01","564","60.03","30"
"05/10/12 16:07:17","82.7916","116.4","217.28","548","60.03","29"
"05/10/12 16:12:17","82.8005","112.5","217.29","531","60.03","29"
"05/10/12 16:17:16","82.809","108.4","217.44","514","60.0","29"
"05/10/12 16:22:17","82.8173","104.5","217.19","495","60.0","29"
"05/10/12 16:27:17","82.8253","100.6","217.77","480","60.03","29"
"05/10/12 16:32:16","82.833","97.1","217.62","466","60.03","29"
"05/10/12 16:37:18","82.8404","93.1","217.21","447","60.0","29"
"05/10/12 16:42:17","82.8475","89.5","216.7","428","60.0","28"
"05/10/12 16:47:17","82.8543","85.4","216.74","416","60.03","28"
"05/10/12 16:52:17","82.8608","81.3","217.21","395","60.03","28"
"05/10/12 16:57:16","82.8669","77.1","216.75","376","60.07","28"
"05/10/12 17:02:16","82.8727","72.4","217.15","360","60.03","28"
"05/10/12 17:07:17","82.8782","68.1","216.11","342","60.0","28"
"05/10/12 17:12:16","82.8833","62.9","216.28","320","60.03","28"
"05/10/12 17:17:16","82.8879","46.8","216.29","361","60.0","28"
"05/10/12 17:22:16","82.8917","44.8","215.66","413","60.0","28"
"05/10/12 17:27:17","82.8956","52.6","215.96","375","60.03","28"
"05/10/12 17:32:17","82.8994","52.1","216.01","344","60.0","28"
"05/10/12 17:37:18","82.9028","47.8","215.77","170","60.03","27"
"05/10/12 17:42:16","82.9058","32.0","215.79","92","60.0","28"
"05/10/12 17:47:17","82.9085","38.0","215.45","164","60.0","28"
"05/10/12 17:52:17","82.911","33.2","215.35","227","60.03","27"
"05/10/12 17:57:18","82.9131","17.8","215.68","155","60.03","27"
"05/10/12 18:02:17","82.9149","31.5","215.43","44","60.03","27"
"05/10/12 18:07:17","82.9164","15.7","215.71","228","60.03","27"
"05/10/12 18:12:16","82.9177","22.5","214.76","255","60.03","27"
"05/10/12 18:17:16","82.9187","11.4","214.54","0","60.0","26"
"05/10/12 18:22:16","82.9196","0.0","213.6","0","60.03","25"
"05/10/12 18:27:17","82.9203","4.0","213.9","99","60.03","24"
"05/10/12 18:32:16","82.9208","14.1","214.0","39","60.03","24"
"05/10/12 18:37:17","82.9212","0.0","214.28","0","60.0","23"
"05/10/12 18:42:17","82.9216","6.4","214.03","0","60.03","22"
"05/10/12 18:47:18","82.9218","0.0","214.52","0","60.03","21"
"05/10/12 18:52:17","82.9221","0.0","214.18","0","60.03","20"
"05/10/12 18:57:18","82.9223","0.0","213.92","0","60.03","20"
"05/10/12 19:02:17","82.9225","13.5","212.84","90","60.03","20"
"05/10/12 19:07:17","82.9226","0.0","213.63","0","60.0","19"
"05/10/12 19:12:17","82.9228","0.0","213.57","0","60.03","19"
"05/11/12 06:27:18","82.9229","0.0","212.79","0","60.0","11"
"05/11/12 06:32:16","82.9231","0.0","214.47","0","60.0","12"
"05/11/12 06:37:18","82.9232","12.7","214.14","5","60.03","13"
"05/11/12 06:42:16","82.9236","13.8","214.2","19","60.03","13"
"05/11/12 06:47:17","82.9242","5.6","214.47","0","60.03","14"
"05/11/12 06:52:18","82.925","13.2","214.69","66","60.0","14"
"05/11/12 06:57:17","82.9259","21.1","214.29","88","60.03","15"
"05/11/12 07:02:17","82.9271","14.8","214.23","284","60.0","16"
"05/11/12 07:07:18","82.9286","20.4","213.91","56","60.03","17"
"05/11/12 07:12:18","82.9301","16.9","213.81","146","60.0","17"
"05/11/12 07:17:17","82.9319","25.4","214.87","42","60.0","18"
"05/11/12 07:22:18","82.9343","32.1","215.33","264","60.03","18"
"05/11/12 07:27:16","82.9367","28.7","215.03","75","60.03","18"
"05/11/12 07:32:18","82.9398","39.8","214.34","376","60.0","19"
"05/11/12 07:37:17","82.9434","41.4","215.02","370","60.03","19"
"05/11/12 07:42:16","82.9473","40.8","214.9","140","60.03","20"
"05/11/12 07:47:17","82.9498","39.0","213.97","271","60.03","20"
"05/11/12 07:52:18","82.9536","55.9","215.53","197","60.03","20"
"05/11/12 07:57:16","82.9584","70.8","215.96","351","60.0","21"
"05/11/12 08:02:17","82.964","71.8","215.52","360","60.03","22"
"05/11/12 08:07:17","82.9694","70.0","215.22","350","60.0","22"
"05/11/12 08:12:17","82.9749","77.5","215.26","385","60.0","23"
"05/11/12 08:17:18","82.9812","82.1","215.89","397","60.0","23"
"05/11/12 08:22:18","82.9877","86.3","216.74","421","60.03","24"
"05/11/12 08:27:18","82.9945","74.0","215.87","366","60.0","24"
"05/11/12 08:32:16","83.0009","94.2","217.14","450","60.03","25"
"05/11/12 08:37:18","83.0083","95.8","216.12","460","60.03","25"
"05/11/12 08:42:18","83.016","98.2","215.89","473","60.03","25"
"05/11/12 08:47:17","83.024","105.0","216.62","504","60.0","26"
"05/11/12 08:52:18","83.0323","107.6","216.74","511","60.0","27"
"05/11/12 08:57:17","83.0408","111.1","216.28","527","60.0","27"
"05/11/12 09:02:16","83.0495","113.6","216.49","538","60.0","28"
"05/11/12 09:07:18","83.0585","118.5","216.85","554","60.0","28"
"05/11/12 09:12:17","83.0679","122.9","216.83","577","60.03","28"
"05/11/12 09:17:16","83.0777","126.7","217.01","592","60.0","29"
"05/11/12 09:22:16","83.0876","129.4","216.86","605","60.03","29"
"05/11/12 09:27:17","83.0979","133.8","215.86","624","60.03","29"
"05/11/12 09:32:18","83.1085","136.3","216.11","635","59.96","30"
"05/11/12 09:37:18","83.1192","139.3","216.37","644","60.03","30"
"05/11/12 09:42:17","83.1302","144.3","217.4","667","60.03","31"
"05/11/12 09:47:18","83.1414","141.5","217.94","651","60.03","32"
"05/11/12 09:52:18","83.1528","147.3","217.44","680","60.0","32"
"05/11/12 09:57:18","83.1639","134.7","217.18","624","60.03","32"
"05/11/12 10:02:17","83.1742","134.0","217.42","624","60.0","32"
"05/11/12 10:07:18","83.1852","144.8","217.31","669","60.03","32"
"05/11/12 10:12:17","83.1967","143.3","217.85","660","60.0","33"
"05/11/12 10:17:17","83.2083","150.3","218.77","690","60.03","33"
"05/11/12 10:22:18","83.2197","144.4","218.01","665","60.0","33"
"05/11/12 10:27:18","83.2306","134.6","217.44","628","60.03","34"
"05/11/12 10:32:17","83.2425","163.4","218.2","748","60.0","34"
"05/11/12 10:37:17","83.2552","166.3","218.3","756","60.03","35"
"05/11/12 10:42:18","83.2684","169.9","218.08","772","60.03","35"
"05/11/12 10:47:16","83.2815","169.3","218.29","770","60.07","36"
"05/11/12 10:52:17","83.2946","167.0","218.22","754","60.0","36"
"05/11/12 10:57:17","83.3077","173.7","219.1","785","60.07","37"
"05/11/12 11:02:17","83.3211","171.0","218.78","774","60.0","38"
"05/11/12 11:07:18","83.3346","173.2","218.84","788","60.0","38"
"05/11/12 11:12:17","83.3482","175.7","218.88","795","60.03","38"
"05/11/12 11:17:17","83.362","177.5","218.79","804","60.03","38"
"05/11/12 11:22:18","83.3757","177.2","218.77","799","60.0","38"
"05/11/12 11:27:18","83.3897","179.0","218.73","805","60.03","38"
"05/11/12 11:32:18","83.4035","179.0","218.91","807","60.03","38"
"05/11/12 11:37:18","83.4173","174.8","218.46","790","60.0","38"
"05/11/12 11:42:17","83.4305","167.9","218.57","760","60.0","38"
"05/11/12 11:47:18","83.4436","163.2","218.88","741","60.03","38"
"05/11/12 11:52:18","83.4563","162.1","218.47","739","60.03","38"
"05/11/12 11:57:18","83.4685","157.0","218.36","722","60.03","37"
"05/11/12 12:02:18","83.4808","158.0","218.19","718","60.03","37"
"05/11/12 12:07:17","83.4928","167.8","218.97","766","60.03","37"
"05/11/12 12:12:16","83.5062","167.0","218.77","755","60.0","38"
"05/11/12 12:17:17","83.5196","177.4","218.7","805","60.03","38"
"05/11/12 12:22:17","83.5333","175.8","218.05","800","60.0","38"
"05/11/12 12:27:18","83.5474","182.8","218.43","831","60.03","38"
"05/11/12 12:32:16","83.5615","176.7","218.26","802","60.0","39"
"05/11/12 12:37:16","83.5752","174.3","217.96","791","60.03","40"
"05/11/12 12:42:17","83.589","179.7","218.53","809","60.03","40"
"05/11/12 12:47:18","83.6027","175.7","218.08","793","60.03","40"
"05/11/12 12:52:18","83.6141","172.9","218.37","789","60.03","39"
"05/11/12 12:57:17","83.6275","173.3","218.65","783","60.03","39"
"05/11/12 13:02:17","83.6418","179.0","218.61","809","60.03","40"
"05/11/12 13:07:18","83.653","164.0","218.34","749","60.03","39"
"05/11/12 13:12:17","83.6664","171.6","218.87","775","60.03","39"
"05/11/12 13:17:17","83.6789","179.8","218.37","814","60.03","38"
"05/11/12 13:22:17","83.6898","40.9","215.59","346","60.0","38"
"05/11/12 13:27:17","83.6938","49.3","216.03","335","60.03","36"
"05/11/12 13:32:18","83.6976","47.5","215.33","344","60.0","34"
"05/11/12 13:37:17","83.7001","25.0","215.33","59","60.03","33"
"05/11/12 13:42:18","83.7019","31.3","214.48","68","60.0","32"
"05/11/12 13:47:17","83.7035","11.0","214.68","64","60.03","31"
"05/11/12 13:52:18","83.7054","35.0","214.77","92","60.07","29"
"05/11/12 13:57:16","83.7085","47.1","214.91","384","60.0","28"